Simultaneous Nadir Overpasses (SNOs) Predictions

Prediction of SNOs between LANDSAT-8 and METOP-A Satellite Orbit:

Table of predicted SNOs for the next 14.0 days since TLE Epoch: 2/23/2019
Index Date (LANDSAT-8) Time (LANDSAT-8) Lat,Lon (LANDSAT-8) SZA (LANDSAT-8 ) Date (METOP-A) Time (METOP-A) Lat,Lon (METOP-A) SZA (METOP-A ) Distance(km) Time Diff (sec)
1 02/24/2019 04:56:23 -81.44, -28.92 86.88 02/24/2019 04:55:40 -81.44, -28.90 86.90 0.63 43
2 02/24/2019 05:45:49 81.44, 138.82 93.12 02/24/2019 05:46:20 81.45, 138.85 93.14 0.61 31
3 02/27/2019 00:30:36 -81.45, 37.69 87.89 02/27/2019 00:29:53 -81.44, 37.60 87.92 1.51 43
4 02/27/2019 01:20:02 81.45,-154.60 92.11 02/27/2019 01:20:33 81.45,-154.68 92.11 1.33 31
5 03/01/2019 20:04:50 -81.45, 104.25 88.92 03/01/2019 20:04:07 -81.44, 104.09 88.96 2.77 43
6 03/01/2019 20:54:16 81.45, -88.06 91.08 03/01/2019 20:54:47 81.45, -88.21 91.07 2.64 31
7 03/04/2019 15:39:05 -81.44, 170.37 90.02 03/04/2019 15:38:21 -81.44, 170.57 90.02 3.35 44
8 03/04/2019 16:28:30 81.46, -21.56 90.03 03/04/2019 16:29:01 81.45, -21.75 90.01 3.37 31
9 03/07/2019 11:13:18 -81.44,-123.16 91.09 03/07/2019 11:12:35 -81.44,-123.36 91.12 3.34 43




NCC Satellite Simultaneous Nadir Overpasses (SNOs) Prediction Service
